Weather History for Kingstree, SC

Change the Weather History Date:

Thursday, October 25, 2012

  Actual Average Record
Temperature  
Mean Temperature 70 °F -  
Max Temperature 82 °F 75 °F 82 °F (2012)
Min Temperature 57 °F 47 °F 39 °F (2013)
Cooling Degree Days 4    
Growing Degree Days 20 (Base 50)    
Moisture  
Dew Point 64 °F    
Average Humidity 85    
Maximum Humidity 100    
Minimum Humidity 58    
Precipitation  
Precipitation 0.00 in - - ()
Sea Level Pressure  
Sea Level Pressure 30.09 in    
Wind  
Wind Speed 2 mph (ENE)    
Max Wind Speed 12 mph    
Max Gust Speed -    
Visibility 8 miles    
Events Fog    
Averages and records for this station are not official NWS values.
T = Trace of Precipitation, MM = Missing Value Source: NWS Daily Summary

Daily Weather History Graph

Daily Weather History Graph

Search for Another Location

Airport:

Trip Planner

Search our weather history database for the weather conditions in past years. The results will help you decide how hot, cold, wet, or windy it might be!

Date:

Astronomy

Oct. 25, 2012 Rise Set
Actual Time 7:32 AM EDT 6:33 PM EDT
Civil Twilight 7:07 AM EDT 6:58 PM EDT
Nautical Twilight 6:38 AM EDT 7:28 PM EDT
Astronomical Twilight 6:09 AM EDT 7:57 PM EDT
Moon 4:10 PM EDT (10/25) 3:38 AM EDT (10/25)
Length of Visible Light 11h 51m
Length of Day
11h 00m
Waxing Gibbous, 84% of the Moon is Illuminated
Oct 25
Waxing Gibbous
Oct 29
Full
Nov 6
Last Quarter
Nov 13
New
Nov 20
First Quarter

Hourly Weather History & Observations

Time (EDT) Temp. Heat Index Dew Point Humidity Pressure Visibility Wind Dir Wind Speed Gust Speed Precip Events Conditions
12:15 AM 60.8 °F - 60.8 °F 100% 30.12 in 10.0 mi Calm Calm - N/A   Clear
12:35 AM 60.8 °F - 60.8 °F 100% 30.12 in 10.0 mi Calm Calm - N/A   Clear
12:55 AM 60.8 °F - 60.8 °F 100% 30.11 in 7.0 mi Calm Calm - N/A   Clear
1:15 AM 59.0 °F - 59.0 °F 100% 30.11 in 7.0 mi Calm Calm - N/A   Clear
1:35 AM 60.8 °F - 60.8 °F 100% 30.11 in 7.0 mi Calm Calm - N/A   Clear
1:55 AM 59.0 °F - 59.0 °F 100% 30.11 in 10.0 mi Calm Calm - N/A   Clear
2:15 AM 59.0 °F - 59.0 °F 100% 30.11 in 10.0 mi Calm Calm - N/A   Clear
2:35 AM 59.0 °F - 59.0 °F 100% 30.10 in 7.0 mi Calm Calm - N/A   Clear
2:55 AM 59.0 °F - 59.0 °F 100% 30.10 in 7.0 mi Calm Calm - N/A   Clear
3:15 AM 59.0 °F - 59.0 °F 100% 30.09 in 7.0 mi Calm Calm - N/A   Clear
3:35 AM 57.2 °F - 57.2 °F 100% 30.09 in 7.0 mi Calm Calm - N/A   Clear
3:55 AM 59.0 °F - 59.0 °F 100% 30.09 in 7.0 mi Calm Calm - N/A   Clear
4:15 AM 59.0 °F - 59.0 °F 100% 30.08 in 10.0 mi Calm Calm - N/A   Clear
4:35 AM 57.2 °F - 57.2 °F 100% 30.08 in 10.0 mi Calm Calm - N/A   Clear
4:55 AM 57.2 °F - 57.2 °F 100% 30.08 in 10.0 mi Calm Calm - N/A   Clear
5:15 AM 57.2 °F - 57.2 °F 100% 30.08 in 1.0 mi Calm Calm - N/A   Mist
5:35 AM 59.0 °F - 59.0 °F 100% 30.09 in 1.2 mi Calm Calm - N/A   Mist
5:55 AM 59.0 °F - 59.0 °F 100% 30.09 in 0.5 mi Calm Calm - N/A Fog Fog
6:15 AM 60.8 °F - 60.8 °F 100% 30.09 in 0.5 mi Calm Calm - N/A Fog Fog
6:35 AM 60.8 °F - 60.8 °F 100% 30.10 in 0.5 mi Calm Calm - N/A Fog Fog
6:55 AM 59.0 °F - 59.0 °F 100% 30.10 in 1.2 mi Calm Calm - N/A   Mist
7:15 AM 60.8 °F - 60.8 °F 100% 30.10 in 1.5 mi Calm Calm - N/A   Mist
7:35 AM 60.8 °F - 60.8 °F 100% 30.10 in 1.8 mi Calm Calm - N/A   Mist
8:35 AM 62.6 °F - 62.6 °F 100% 30.12 in 10.0 mi Calm Calm - N/A   Clear
9:15 AM 64.4 °F - 64.4 °F 100% 30.12 in 10.0 mi Calm Calm - N/A   Clear
9:35 AM 68.0 °F - 68.0 °F 100% 30.12 in 10.0 mi Calm Calm - N/A   Clear
9:55 AM 69.8 °F - 68.0 °F 94% 30.12 in 10.0 mi NNE 3.5 mph - N/A   Clear
10:15 AM 71.6 °F - 69.8 °F 94% 30.12 in 10.0 mi NE 3.5 mph - N/A   Clear
10:35 AM 73.4 °F - 69.8 °F 88% 30.12 in 10.0 mi ENE 4.6 mph - N/A   Clear
10:55 AM 77.0 °F - 69.8 °F 78% 30.12 in 10.0 mi NNE 3.5 mph - N/A   Clear
11:15 AM 77.0 °F - 68.0 °F 74% 30.12 in 10.0 mi ENE 5.8 mph - N/A   Clear
11:35 AM 78.8 °F - 68.0 °F 69% 30.11 in 10.0 mi ENE 5.8 mph - N/A   Clear
11:55 AM 80.6 °F 83.2 °F 68.0 °F 65% 30.11 in 10.0 mi NE 4.6 mph - N/A   Clear
12:15 PM 80.6 °F 83.2 °F 68.0 °F 65% 30.11 in 10.0 mi NE 6.9 mph - N/A   Clear
12:35 PM 82.4 °F 85.4 °F 68.0 °F 62% 30.10 in 10.0 mi NE 6.9 mph - N/A   Clear
12:55 PM 80.6 °F 83.2 °F 68.0 °F 65% 30.09 in 10.0 mi NE 6.9 mph - N/A   Clear
1:35 PM 82.4 °F 84.6 °F 66.2 °F 58% 30.07 in 10.0 mi ENE 5.8 mph - N/A   Clear
1:55 PM 82.4 °F 84.6 °F 66.2 °F 58% 30.07 in 10.0 mi ENE 8.1 mph - N/A   Clear
2:15 PM 82.4 °F 85.4 °F 68.0 °F 62% 30.07 in 10.0 mi East 9.2 mph - N/A   Clear
2:35 PM 82.4 °F 84.6 °F 66.2 °F 58% 30.06 in 10.0 mi East 9.2 mph - N/A   Clear
2:55 PM 82.4 °F 85.4 °F 68.0 °F 62% 30.06 in 10.0 mi ENE 5.8 mph - N/A   Clear
3:15 PM 82.4 °F 85.4 °F 68.0 °F 62% 30.06 in 10.0 mi East 9.2 mph - N/A   Clear
3:35 PM 82.4 °F 85.4 °F 68.0 °F 62% 30.06 in 10.0 mi ENE 6.9 mph - N/A   Clear
4:15 PM 80.6 °F 82.7 °F 66.2 °F 61% 30.06 in 10.0 mi East 6.9 mph - N/A   Clear
4:35 PM 80.6 °F 82.7 °F 66.2 °F 61% 30.05 in 10.0 mi East 9.2 mph - N/A   Clear
4:55 PM 80.6 °F 83.2 °F 68.0 °F 65% 30.06 in 10.0 mi East 11.5 mph - N/A   Clear
5:15 PM 80.6 °F 82.7 °F 66.2 °F 61% 30.06 in 10.0 mi East 6.9 mph - N/A   Clear
5:35 PM 80.6 °F 82.7 °F 66.2 °F 61% 30.06 in 10.0 mi East 10.4 mph - N/A   Clear
5:55 PM 78.8 °F - 66.2 °F 65% 30.06 in 10.0 mi East 6.9 mph - N/A   Clear
6:35 PM 75.2 °F - 66.2 °F 73% 30.07 in 10.0 mi East 4.6 mph - N/A   Clear
6:55 PM 73.4 °F - 66.2 °F 78% 30.07 in 10.0 mi Calm Calm - N/A   Clear
7:15 PM 71.6 °F - 66.2 °F 83% 30.08 in 10.0 mi East 3.5 mph - N/A   Clear
7:35 PM 71.6 °F - 66.2 °F 83% 30.08 in 10.0 mi Calm Calm - N/A   Clear
7:55 PM 71.6 °F - 66.2 °F 83% 30.08 in 10.0 mi East 4.6 mph - N/A   Clear
8:15 PM 69.8 °F - 66.2 °F 88% 30.08 in 10.0 mi East 3.5 mph - N/A   Clear
8:35 PM 69.8 °F - 66.2 °F 88% 30.08 in 10.0 mi Calm Calm - N/A   Clear
8:55 PM 69.8 °F - 66.2 °F 88% 30.08 in 10.0 mi Calm Calm - N/A   Clear
9:15 PM 69.8 °F - 66.2 °F 88% 30.08 in 10.0 mi Calm Calm - N/A   Clear
9:35 PM 69.8 °F - 66.2 °F 88% 30.08 in 10.0 mi Calm Calm - N/A   Clear
9:55 PM 69.8 °F - 66.2 °F 88% 30.08 in 10.0 mi Calm Calm - N/A   Clear
10:15 PM 68.0 °F - 66.2 °F 94% 30.07 in 10.0 mi Calm Calm - N/A   Clear
10:35 PM 68.0 °F - 66.2 °F 94% 30.07 in 10.0 mi Calm Calm - N/A   Clear
10:55 PM 68.0 °F - 66.2 °F 94% 30.06 in 10.0 mi Calm Calm - N/A   Clear
11:55 PM 64.4 °F - 64.4 °F 100% 30.05 in 10.0 mi Calm Calm - N/A   Clear